{"data":{"norad_id":43228,"intl_designator":"2018-023A","name":"HISPASAT 30W-6","alt_names":[],"object_type":"PAYLOAD","status":"ACTIVE","operator":null,"country":"SPN","launch_date":"2018-03-06","launch_site_code":"AFETR","launch_vehicle":null,"mission":null,"orbit_class":"UNKNOWN","rcs_meters":null,"size_class":null,"mass_kg":null,"dimensions":null,"purposes":["comms"],"wikipedia_slug":null,"has_3d_model":false,"image_url":null,"decayed_at":null,"tle_current":{"epoch":"2026-05-25T04:42:03.573216Z","epoch_age_seconds":54957,"freshness":"FRESH","line1":"1 43228U 18023A   26145.19587469 -.00000218  00000+0  00000+0 0  9990","line2":"2 43228   0.0484  44.6618 0006373  12.8988 225.7358  1.00270781 30170","mean_motion":1.00270781,"eccentricity":0.0006373,"inclination_deg":0.0484,"raan_deg":44.6618,"arg_perigee_deg":12.8988,"mean_anomaly_deg":225.7358,"bstar":0,"rev_number":3017,"period_min":1436.1112835054,"perigee_km":35760.004658132,"apogee_km":35813.748184239,"semimajor_km":42165.013421185,"source":"CELESTRAK","updated_at":"2026-05-25T13:38:14.051604Z"}}}